Regional Weather Roundup
Issued by NWS State College, PA

Home | Current Version | Previous Version | Text Only | Print | Product List | Glossary On
Versions: 1 2 3 4 5 6 7 8 9 10 11 12 13 14 15 16 17 18 19 20 21 22 23 24 25 26 27 28 29 30 31 32 33 34 35 36 37 38 39 40 41 42 43 44 45 46 47 48 49 50
000
ASUS41 KCTP 070210
RWRCTP

REGIONAL WEATHER ROUNDUP
NATIONAL WEATHER SERVICE STATE COLLEGE PA
900 PM EST FRI MAR 06 2015

Note: "fair" indicates few or no clouds below 12,000 feet with no
significant weather and/or obstructions to visibility.

* = STATION THAT DOES NOT REPORT PRECIPITATION /E.G. RAIN...SNOW...ETC/
    THUNDER OR FOG.

PAZ002>004-007>009-013>016-020>023-029>032-070300-
WESTERN PENNSYLVANIA

CITY           SKY/WX    TMP DP  RH WIND       PRES   REMARKS
ERIE           PTCLDY    20   3  48 S13       30.26F WCI   7
MEADVILLE      CLEAR     15   1  53 S6        30.24F WCI   6
FRANKLIN*      CLEAR     16   1  53 S12       30.26F WCI   3
NEW CASTLE     FAIR      18   5  56 S5        30.31F WCI  11
BEAVER COUNTY  CLEAR     19   9  63 S7        30.30S WCI  10
BUTLER*        CLEAR     18   9  68 SW8       30.31F WCI   7
PITTSBURGH INT PTCLDY    19  11  70 SW12      30.32S WCI   7
PITTSBURGH     CLEAR     17   8  67 SW13      30.32S WCI   4
INDIANA*       PTCLDY    14   9  79 SW3       30.34F
LATROBE        CLEAR     16  14  93 S9        30.35F WCI   4
WASHINGTON CO* CLEAR     16  10  79 SW6       30.34F WCI   7
$$

PAZ004>006-010>012-017>019-024>028-033>037-041-042-045-046-049>053-070300-
CENTRAL PENNSYLVANIA

CITY           SKY/WX    TMP DP  RH WIND       PRES   REMARKS
BRADFORD       PTCLDY    15   1  53 SW9       30.18F WCI   3
DUBOIS         CLEAR     14   4  64 SW6       30.23F WCI   5
CLEARFIELD     CLEAR     16   2  54 SW9       30.28S WCI   4
JOHNSTOWN      CLEAR     13   8  81 W7        30.22S WCI   3
ALTOONA        PTCLDY    20   6  55 SW6       30.29S WCI  12
STATE COLLEGE  CLEAR     19   5  53 W8        30.29S WCI   9
WILLIAMSPORT   MOCLDY    18   4  54 CALM      30.33F
SELINSGROVE    PTCLDY    18   4  54 S6        30.37S WCI  10
FT INDIANTOWN  CLEAR     11   4  75 CALM      30.39R
CAPITAL CITY   PTCLDY    17   5  59 W3        30.40S
HARRISBURG     PTCLDY    14   6  70 CALM      30.40S
YORK           PTCLDY    -3  -5  90 CALM      30.39S
$$

PAZ038>040-043-044-047-048-054-055-060>062-067>071-070300-
EASTERN PENNSYLVANIA

CITY           SKY/WX    TMP DP  RH WIND       PRES   REMARKS
SCRANTON       PTCLDY    18  -2  41 SW6       30.30S WCI  10
MOUNT POCONO   PTCLDY    13  -2  51 W6        30.21F WCI   4
ALLENTOWN      PTCLDY    15   3  59 SW6       30.37F WCI   6
QUAKERTOWN*    PTCLDY    14   7  73 CALM      30.38S
READING        PTCLDY    17   5  59 CALM      30.39F
LANCASTER      PTCLDY    13   6  74 CALM      30.39S
COATESVILLE    PTCLDY    14   7  73 CALM      30.38F
POTTSTOWN      PTCLDY    12   5  73 CALM      30.41S
BLUE BELL      PTCLDY    19  10  68 CALM      30.40R
DOYLESTOWN     PTCLDY    16   8  71 W6        30.39R WCI   7
WILLOW GROVE   NOT AVBL
NORTH PHILA    PTCLDY    22  10  60 W5        30.43F
PHILADELPHIA   MOCLDY    20   6  55 W7        30.44S WCI  11
$$



USA.gov is the U.S. government's official web portal to all federal, state and local government web resources and services.